Starlink 5053

operational
NORAD ID: 53913 Int'l Des: 2022-119 Owner: SPXS Country: US Constellation: starlink
LEOCIRCULAR

关于 Starlink 5053

正在加载描述...

实时位置

正在加载3D地球...

即将过境

高度历史

Altitude vs Time

uPlot chart will show altitude changes over time

两行轨道根数

1 53913U 22119AD 25304.84324784 -.00000450 00000-0 -10193-4 0 9999
2 53913 53.2180 172.5168 0001750 111.0545 249.0635 15.08834392172374
Epoch: Oct 31, 2025 • Age: 14 hours

当前状态

高度 545.1 km
速度 7.59 km/s
星下点 -19.22°S, 176.2°E
发射日期 Sep 24, 2022
运行时间 3.1 years
类型 internet

技术详情

分类 Payload
质量 305.00 kg
干质量 290.00 kg
总质量 305.00 kg
长度 0.20 m
直径 2.80 m
跨度 9.00 m
形状 Box + pan
制造商 SPXS
平台类型 Starlink
阶段状态 In Orbit
所有者/国家 SPXS/US

大型星座

Loading constellations...